[[{"header":{"parameterUnit":"m.s-1","parameterCategory":1,"la1":30.2991,"la2":30.254,"lo1":-89.0895,"lo2":-89.0444,"dy":0.0017,"dx":0.0017,"nx":28,"ny":28,"refTime":"2024-05-01T03:00:00:Z","depth":0,"parameterNumber":2,"parameterNumberName":"U-component_of_WINDS"},"data":[0,0,0,0,0,0,0,0,0,0,0,0,0,0,0,0,0,0,0,0,0,0,0,0,0,0,0,0,0,0,0,0,0,0,0,0,0,0,0,0,0,0,0,0,0,0,0,0,0,0,0,0,0,0,0,0,0,0,-0.9281,-0.9281,0,-0.9286,-0.9286,-0.9286,-0.9277,-0.9277,-0.9277,-0.9277,-0.9281,-0.9282,-0.9282,0,0,0,0,0,0,0,0,0,0,0,0,0,-0.9267,-0.9267,-0.9281,-0.9281,-0.9281,-0.9286,-0.9286,-0.9286,-0.9277,-0.9277,-0.9277,-0.9276,-0.9281,-0.9282,-0.9282,0,0,0,0,0,0,0,0,0,0,0,0,0,-0.9272,-0.9267,-0.9281,-0.9278,-0.9277,-0.9286,-0.9286,-0.9286,-0.9277,-0.9277,-0.9277,-0.9276,-0.9281,-0.9282,-0.9282,-0.9294,0,0,-0.9284,-0.9284,0,0,0,0,0,0,0,0,-0.9272,-0.9273,-0.9278,-0.9278,-0.9278,-0.928,-0.9282,-0.9288,-0.9278,-0.9277,-0.9277,-0.9276,-0.9281,-0.9282,-0.9284,-0.9294,-0.9294,-0.9284,-0.9284,-0.9285,-0.9285,0,0,0,0,0,0,0,-0.9272,-0.9273,-0.9283,-0.9278,-0.9278,-0.9276,-0.9277,-0.9283,-0.9282,-0.9277,-0.9277,-0.9277,-0.9281,-0.9283,-0.9284,-0.9294,-0.9284,-0.9284,-0.9285,-0.9285,-0.9317,-0.9317,0,0,0,0,0,0,-0.9272,-0.9272,-0.9283,-0.9283,-0.9274,-0.9277,-0.9277,-0.928,-0.9282,-0.9281,-0.9278,-0.9277,-0.9282,-0.9283,-0.9284,-0.9299,-0.9285,-0.9285,-0.9285,-0.9316,-0.9317,-0.9317,0,0,0,0,0,0,-0.9271,-0.9273,-0.9283,-0.9278,-0.9279,-0.9278,-0.9281,-0.928,-0.9282,-0.9282,-0.9282,-0.928,-0.9282,-0.9283,-0.9292,-0.9299,-0.9285,-0.9286,-0.9316,-0.9316,-0.9317,-0.9328,0,0,0,0,0,0,-0.9271,-0.9273,-0.9277,-0.9278,-0.9279,-0.929,-0.9281,-0.9281,-0.9283,-0.9282,-0.9284,-0.9284,-0.9282,-0.9291,-0.9292,-0.9299,-0.9286,-0.9315,-0.9316,-0.9317,-0.9327,-0.9329,-0.9331,0,0,0,0,0,-0.927,-0.9279,-0.9277,-0.9278,-0.9284,-0.929,-0.9291,-0.9289,-0.9284,-0.9288,-0.9288,-0.9284,-0.9298,-0.9292,-0.9294,-0.9301,-0.9315,-0.9316,-0.9317,-0.9326,-0.9329,-0.9331,0,0,0,0,0,0,-0.9278,-0.9279,-0.9277,-0.9286,-0.9288,-0.9289,-0.9294,-0.9291,-0.9295,-0.9294,-0.9291,-0.9291,-0.9301,-0.9302,-0.9295,-0.9313,-0.9305,-0.9307,-0.9312,-0.9314,-0.9316,-0.9316,-0.9287,0,0,0,0,0,-0.9281,-0.9286,-0.9287,-0.9295,-0.9296,-0.9295,-0.9298,-0.9296,-0.9298,-0.9299,-0.93,-0.9303,-0.9308,-0.9311,-0.9316,-0.9327,-0.9328,-0.9333,-0.9335,-0.9337,-0.9338,-0.9345,-0.9348,-0.9321,-0.9321,-0.9321,0,0,-0.9287,-0.9288,-0.9291,-0.9297,-0.9298,-0.9304,-0.9296,-0.9302,-0.9307,-0.93,-0.9309,-0.931,-0.9312,-0.9323,-0.9328,-0.9324,-0.9345,-0.9338,-0.9339,-0.934,-0.9347,-0.9349,-0.9351,-0.9322,-0.9322,-0.9322,0,0,-0.9301,-0.9302,-0.9309,-0.9312,-0.9314,-0.9314,-0.9316,-0.9317,-0.9318,-0.9327,-0.9322,-0.9328,-0.9336,-0.9339,-0.9342,-0.9358,-0.9355,-0.936,-0.937,-0.9377,-0.9379,-0.9381,-0.9387,-0.939,-0.9361,-0.9361,-0.9361,0,-0.9308,-0.9316,-0.9314,-0.932,-0.9323,-0.9318,-0.9326,-0.9329,-0.9333,-0.9335,-0.9331,-0.9343,-0.9344,-0.9356,-0.936,-0.9362,-0.9365,-0.9359,-0.9379,-0.9381,-0.9382,-0.9389,-0.9391,-0.9362,-0.9362,-0.9362,-0.9362,0,-0.9325,-0.9331,-0.9337,-0.9341,-0.9345,-0.9352,-0.9352,-0.9356,-0.9354,-0.9354,-0.9364,-0.9366,-0.9371,-0.9374,-0.9372,-0.9386,-0.9384,-0.9379,-0.9371,-0.9386,-0.9391,-0.9394,-0.9363,-0.9363,-0.9363,-0.9362,0,0,-0.9342,-0.9347,-0.9349,-0.9352,-0.9355,-0.936,-0.9368,-0.9374,-0.9377,-0.9381,-0.9388,-0.9396,-0.9393,-0.9396,-0.9394,-0.9401,-0.9415,-0.9395,-0.9395,-0.9399,-0.9431,-0.9435,-0.9437,-0.9413,-0.9413,-0.9413,-0.9431,0,-0.9357,-0.937,-0.9369,-0.9381,-0.9387,-0.9384,-0.9391,-0.9394,-0.9395,-0.9401,-0.9402,-0.9408,-0.9402,-0.9404,-0.941,-0.9412,-0.9421,-0.941,-0.942,-0.942,-0.9419,-0.944,-0.9444,-0.946,-0.9433,-0.9434,-0.9434,0,-0.9374,-0.9379,-0.9392,-0.9396,-0.9399,-0.9405,-0.9411,-0.9416,-0.9421,-0.9421,-0.9425,-0.9423,-0.9432,-0.9424,-0.9437,-0.943,-0.9434,-0.9435,-0.9436,-0.9436,-0.9428,-0.9442,-0.9465,-0.9468,-0.9438,-0.9437,-0.9437,0,-0.9387,-0.9396,-0.9406,-0.9408,-0.9413,-0.9418,-0.942,-0.9424,-0.9428,-0.9433,-0.9436,-0.9442,-0.9446,-0.9451,-0.9451,-0.9446,-0.9464,-0.9456,-0.9465,-0.9465,-0.9469,-0.9468,-0.9493,-0.9471,-0.9471,-0.9471,-0.9471,0,-0.9402,-0.9411,-0.9412,-0.9417,-0.9427,-0.9427,-0.9436,-0.9438,-0.9442,-0.9449,-0.9446,-0.9453,-0.9452,-0.9459,-0.946,-0.947,-0.9472,-0.9473,-0.9473,-0.9473,-0.9473,-0.9475,-0.9474,-0.9472,-0.9472,-0.9472,-0.9471,0,-0.9417,-0.9418,-0.9428,-0.9432,-0.9434,-0.9441,-0.9445,-0.9451,-0.9452,-0.9461,-0.9463,-0.9465,-0.9473,-0.9474,-0.9483,-0.9483,-0.9496,-0.9495,-0.9495,-0.9495,-0.9504,-0.9503,-0.9531,-0.9535,-0.951,-0.951,-0.951,0,-0.9427,-0.9434,-0.9439,-0.9443,-0.9446,-0.9453,-0.9457,-0.9457,-0.9462,-0.9468,-0.9474,-0.9482,-0.9488,-0.9501,-0.9504,-0.9511,-0.951,-0.952,-0.9511,-0.9512,-0.9511,-0.9511,-0.9512,-0.9521,-0.9521,-0.9522,-0.9522,0,-0.9445,-0.9445,-0.9452,-0.9458,-0.9464,-0.9469,-0.9474,-0.9478,-0.9479,-0.9485,-0.9493,-0.9498,-0.9508,-0.9516,-0.9524,-0.9527,-0.9525,-0.9525,-0.9527,-0.9527,-0.9527,-0.9528,-0.95,-0.9524,-0.9524,-0.9523,-0.9523,-0.9523,-0.9458,-0.9464,-0.9469,-0.9476,-0.948,-0.9486,-0.9492,-0.9494,-0.9501,-0.9509,-0.9509,-0.9519,-0.9525,-0.9535,-0.9538,-0.9546,-0.9543,-0.9547,-0.9547,-0.9548,-0.9549,-0.9526,-0.9548,-0.9548,-0.9548,-0.9548,-0.9547,0,-0.9476,-0.9479,-0.9486,-0.9494,-0.95,-0.9498,-0.9504,-0.9509,-0.9518,-0.9523,-0.953,-0.954,-0.9548,-0.9552,-0.9561,-0.9566,-0.9566,-0.9569,-0.9568,-0.9569,-0.9551,-0.9549,-0.9569,-0.9569,-0.9569,-0.9569,-0.9569,-0.9569,-0.9486,-0.9496,-0.9498,-0.9511,-0.9514,-0.9524,-0.9527,-0.9532,-0.9537,-0.9549,-0.9556,-0.9558,-0.9563,-0.9573,-0.958,-0.9581,-0.9585,-0.9588,-0.9589,-0.9572,-0.957,-0.9568,-0.9565,-0.9589,-0.9589,-0.9606,-0.9606,-0.9606]},{"header":{"parameterUnit":"m.s-1","parameterCategory":1,"la1":30.2991,"la2":30.254,"lo1":-89.0895,"lo2":-89.0444,"dy":0.0017,"dx":0.0017,"nx":28,"ny":28,"refTime":"2024-05-01T03:00:00:Z","depth":0,"parameterNumber":3,"parameterNumberName":"V-component_of_WINDS"},"data":[0,0,0,0,0,0,0,0,0,0,0,0,0,0,0,0,0,0,0,0,0,0,0,0,0,0,0,0,0,0,0,0,0,0,0,0,0,0,0,0,0,0,0,0,0,0,0,0,0,0,0,0,0,0,0,0,0,0,1.5928,1.5928,0,1.5896,1.5896,1.5896,1.5876,1.5876,1.5876,1.5876,1.5841,1.584,1.5839,0,0,0,0,0,0,0,0,0,0,0,0,0,1.597,1.5969,1.5928,1.5928,1.5928,1.5896,1.5896,1.5895,1.5876,1.5876,1.5876,1.5875,1.5841,1.584,1.5839,0,0,0,0,0,0,0,0,0,0,0,0,0,1.5946,1.5969,1.5928,1.5914,1.5912,1.5896,1.5896,1.5895,1.5876,1.5876,1.5876,1.5875,1.5841,1.584,1.5839,1.5834,0,0,1.5835,1.5834,0,0,0,0,0,0,0,0,1.5948,1.5945,1.5917,1.5915,1.5913,1.589,1.5898,1.5875,1.5876,1.589,1.5876,1.5875,1.5857,1.5854,1.5849,1.5832,1.5831,1.5835,1.5834,1.5834,1.5833,0,0,0,0,0,0,0,1.5949,1.5946,1.5916,1.5916,1.5914,1.5908,1.5905,1.5893,1.5874,1.5888,1.5887,1.5884,1.5856,1.585,1.5848,1.583,1.5835,1.5834,1.5833,1.5832,1.5807,1.5807,0,0,0,0,0,0,1.5954,1.5948,1.5917,1.5915,1.5931,1.5908,1.5904,1.5898,1.5875,1.5871,1.5884,1.5883,1.5852,1.5849,1.5846,1.5839,1.5834,1.5832,1.5832,1.5807,1.5807,1.5807,0,0,0,0,0,0,1.5955,1.5951,1.5918,1.5931,1.5926,1.5907,1.59,1.5897,1.5891,1.5871,1.5867,1.5881,1.5852,1.5848,1.5837,1.5837,1.5832,1.5831,1.5807,1.5807,1.5807,1.5823,0,0,0,0,0,0,1.5956,1.5952,1.595,1.5931,1.5926,1.591,1.59,1.5896,1.5889,1.5887,1.5868,1.5864,1.5852,1.5839,1.5836,1.5835,1.583,1.5807,1.5807,1.5807,1.5823,1.5824,1.5825,0,0,0,0,0,1.5958,1.5956,1.595,1.5947,1.5923,1.591,1.5907,1.5893,1.5889,1.5887,1.5874,1.5865,1.5838,1.5838,1.5834,1.5833,1.5807,1.5807,1.5807,1.5822,1.5824,1.5825,0,0,0,0,0,0,1.5975,1.5953,1.5947,1.5939,1.5927,1.5907,1.5904,1.5895,1.5883,1.5882,1.5865,1.5861,1.5851,1.5841,1.5842,1.5827,1.5821,1.5821,1.5834,1.5835,1.5836,1.5839,1.5829,0,0,0,0,0,1.5978,1.597,1.5951,1.5945,1.594,1.5923,1.5917,1.5907,1.5893,1.5888,1.5874,1.586,1.5849,1.5841,1.583,1.5821,1.5816,1.5819,1.582,1.5821,1.582,1.5814,1.5815,1.5808,1.5808,1.5808,0,0,1.5984,1.5971,1.5967,1.5949,1.5938,1.5929,1.5919,1.591,1.5902,1.5886,1.5875,1.5864,1.5848,1.5838,1.5833,1.5829,1.5821,1.5821,1.5822,1.5821,1.5815,1.5815,1.5816,1.5808,1.5808,1.5808,0,0,1.599,1.598,1.5974,1.5964,1.5948,1.5937,1.5935,1.5917,1.5909,1.5898,1.5885,1.5876,1.5857,1.5845,1.5837,1.5838,1.5829,1.5835,1.5841,1.5835,1.5836,1.5836,1.5836,1.5836,1.5834,1.5834,1.5834,0,1.6,1.5986,1.5972,1.5964,1.5956,1.5941,1.5935,1.5925,1.5906,1.59,1.5897,1.5872,1.586,1.5846,1.5847,1.5841,1.5838,1.5837,1.5837,1.5837,1.5837,1.5837,1.5837,1.5835,1.5835,1.5835,1.5835,0,1.5998,1.5989,1.5986,1.5968,1.596,1.5953,1.5937,1.593,1.5921,1.5909,1.5897,1.5882,1.5867,1.5863,1.5854,1.5848,1.5847,1.584,1.5834,1.5839,1.5838,1.5838,1.5836,1.5836,1.5836,1.5836,0,0,1.6014,1.5989,1.5988,1.598,1.5961,1.5953,1.5945,1.593,1.5924,1.5911,1.5903,1.5887,1.588,1.5871,1.586,1.5855,1.5856,1.5849,1.5849,1.5851,1.5848,1.5853,1.5853,1.585,1.585,1.585,1.5849,0,1.6017,1.6002,1.5989,1.5978,1.5969,1.5955,1.5947,1.5934,1.5923,1.5913,1.5901,1.5889,1.5883,1.5877,1.5871,1.5858,1.5856,1.5857,1.5841,1.5841,1.5846,1.5853,1.5858,1.5858,1.5849,1.5849,1.5849,0,1.6019,1.6007,1.5995,1.5977,1.5973,1.5966,1.5951,1.5942,1.5927,1.5919,1.5909,1.5898,1.5887,1.5882,1.5866,1.5868,1.5861,1.5853,1.5853,1.585,1.5845,1.585,1.5857,1.5857,1.5848,1.5848,1.5848,0,1.6031,1.6012,1.6003,1.5996,1.5974,1.597,1.5961,1.5946,1.5937,1.5924,1.5919,1.5904,1.5896,1.5885,1.587,1.5868,1.5855,1.5849,1.5848,1.5848,1.5846,1.5846,1.5852,1.5842,1.5842,1.5842,1.5842,0,1.6035,1.6029,1.6008,1.6002,1.5994,1.5978,1.597,1.596,1.5946,1.5937,1.5924,1.5915,1.5896,1.5885,1.5873,1.5862,1.5858,1.5851,1.5848,1.5852,1.5853,1.5847,1.5846,1.5842,1.5842,1.5842,1.5842,0,1.6047,1.6033,1.6022,1.6003,1.5998,1.5992,1.5975,1.5968,1.5957,1.5946,1.5942,1.5924,1.591,1.5894,1.5875,1.5867,1.5856,1.5852,1.5862,1.586,1.5859,1.5859,1.5861,1.586,1.5851,1.5851,1.5851,0,1.6051,1.6045,1.6026,1.6019,1.601,1.6,1.5992,1.5976,1.5968,1.595,1.5945,1.5931,1.5918,1.5897,1.5881,1.5866,1.5861,1.5863,1.5859,1.5863,1.586,1.5861,1.586,1.5864,1.5864,1.5864,1.5864,0,1.6058,1.6052,1.6041,1.6027,1.6018,1.6006,1.5994,1.5989,1.5971,1.5962,1.5948,1.5939,1.592,1.5905,1.5888,1.5877,1.5867,1.5865,1.5864,1.5868,1.5874,1.587,1.5864,1.5865,1.5865,1.5865,1.5865,1.5865,1.6066,1.606,1.6045,1.6033,1.6022,1.6011,1.6004,1.5991,1.598,1.5964,1.5955,1.5941,1.5925,1.5902,1.5891,1.588,1.5876,1.5875,1.5874,1.5874,1.5875,1.5876,1.5877,1.5876,1.5876,1.5876,1.5876,0,1.6072,1.6062,1.6051,1.6034,1.6025,1.6017,1.6003,1.5995,1.5983,1.597,1.5958,1.5942,1.5927,1.5911,1.5895,1.5889,1.5884,1.5885,1.5885,1.5883,1.5879,1.5881,1.589,1.589,1.589,1.589,1.589,1.589,1.6074,1.6064,1.6055,1.6039,1.6029,1.6016,1.6008,1.5997,1.5986,1.5969,1.5958,1.5947,1.5932,1.5915,1.5901,1.5896,1.5891,1.5894,1.5888,1.5884,1.5883,1.5882,1.5884,1.5893,1.5893,1.5892,1.5892,1.5892]}]]